N80FC KDEN-KLAX

Flight info

Callsign N80FC
Flight time N/A
Altitude 43000
Route BAYLR6 TEHRU JASSE Q90 DNERO ANJLL4
Aircraft C700/M-SBDGHM1RWXY/LB2

Departure

Time 2026-05-05 00:59
Airport Denver International Airport (KDEN)

Arrival

Time N/A
Airport Los Angeles International Airport (KLAX)
Time Latitude Longitude Altitude Speed Heading
2026-05-05 00:44 39.83937 -104.66504 5404 ft 0 kts 359°
2026-05-05 00:55 39.83940 -104.66497 5415 ft 3 kts 69°
2026-05-05 00:56 39.83970 -104.66425 5410 ft 14 kts 59°
2026-05-05 00:56 39.84012 -104.66286 5416 ft 19 kts 114°
2026-05-05 00:56 39.83897 -104.66259 5418 ft 18 kts 181°
2026-05-05 00:56 39.83772 -104.66261 5419 ft 19 kts 181°
2026-05-05 00:57 39.83638 -104.66263 5421 ft 19 kts 180°
2026-05-05 00:57 39.83509 -104.66264 5419 ft 18 kts 181°
2026-05-05 00:57 39.83380 -104.66265 5421 ft 19 kts 180°
2026-05-05 00:57 39.83265 -104.66266 5430 ft 4 kts 180°
2026-05-05 00:58 39.83242 -104.66255 5427 ft 4 kts 141°
2026-05-05 00:58 39.83231 -104.66220 5423 ft 6 kts 100°
2026-05-05 00:58 39.83227 -104.66138 5433 ft 13 kts 91°
2026-05-05 00:58 39.83302 -104.66051 5422 ft 24 kts
2026-05-05 00:59 39.83713 -104.66045 5416 ft 101 kts
2026-05-05 00:59 39.84679 -104.66023 5621 ft 167 kts 357°
2026-05-05 00:59 39.85937 -104.66062 6656 ft 195 kts 350°
2026-05-05 00:59 39.87051 -104.67131 7885 ft 212 kts 305°
2026-05-05 01:00 39.87448 -104.69075 9056 ft 242 kts 270°
2026-05-05 01:00 39.86852 -104.71258 9982 ft 278 kts 240°
2026-05-05 01:00 39.85641 -104.73497 10019 ft 321 kts 233°
2026-05-05 01:00 39.84268 -104.75928 10012 ft 353 kts 236°
2026-05-05 01:01 39.82914 -104.78766 10006 ft 379 kts 240°
2026-05-05 01:01 39.81620 -104.81769 10013 ft 380 kts 240°
2026-05-05 01:01 39.80264 -104.84721 10002 ft 381 kts 238°
2026-05-05 01:01 39.78846 -104.87628 10003 ft 381 kts 238°
2026-05-05 01:02 39.77577 -104.90642 9981 ft 380 kts 247°
2026-05-05 01:02 39.76801 -104.93881 10549 ft 366 kts 256°
2026-05-05 01:02 39.76126 -104.96958 12623 ft 344 kts 254°
2026-05-05 01:02 39.75440 -104.99948 14387 ft 348 kts 255°
2026-05-05 01:03 39.74731 -105.02985 15792 ft 355 kts 251°
2026-05-05 01:03 39.73753 -105.05962 17237 ft 360 kts 248°
2026-05-05 01:03 39.72772 -105.08964 18630 ft 363 kts 248°
2026-05-05 01:03 39.72124 -105.10982 19389 ft 367 kts 249°
2026-05-05 01:04 39.71123 -105.14064 20422 ft 374 kts 249°
2026-05-05 01:04 39.69044 -105.20372 22365 ft 384 kts 249°
2026-05-05 01:04 39.68112 -105.23637 23331 ft 388 kts 258°
2026-05-05 01:05 39.67746 -105.27124 24239 ft 391 kts 265°
2026-05-05 01:05 39.67481 -105.30647 25095 ft 396 kts 265°
2026-05-05 01:05 39.67062 -105.34198 25895 ft 402 kts 256°
2026-05-05 01:05 39.65928 -105.37542 26763 ft 409 kts 244°
2026-05-05 01:06 39.64363 -105.40603 27562 ft 416 kts 238°
2026-05-05 01:06 39.62625 -105.43639 28364 ft 421 kts 237°
2026-05-05 01:06 39.60852 -105.46682 29199 ft 423 kts 238°
2026-05-05 01:06 39.59337 -105.49966 29987 ft 424 kts 246°
2026-05-05 01:07 39.58131 -105.53442 30820 ft 420 kts 251°
2026-05-05 01:07 39.57000 -105.56866 32252 ft 401 kts 251°
2026-05-05 01:07 39.55927 -105.60025 34110 ft 375 kts 252°
2026-05-05 01:07 39.54975 -105.63051 35677 ft 351 kts 255°
2026-05-05 01:08 39.54197 -105.65963 36969 ft 334 kts 255°
2026-05-05 01:08 39.53427 -105.68748 38124 ft 321 kts 254°
2026-05-05 01:08 39.52681 -105.71413 38917 ft 311 kts 254°
2026-05-05 01:08 39.51949 -105.74069 39042 ft 316 kts 255°
2026-05-05 01:09 39.50436 -105.79531 39426 ft 322 kts 254°
2026-05-05 01:09 39.49669 -105.82258 39743 ft 323 kts 254°
2026-05-05 01:09 39.48908 -105.85016 39884 ft 327 kts 254°
2026-05-05 01:10 39.48139 -105.87798 40142 ft 329 kts 254°
2026-05-05 01:10 39.47359 -105.90591 40346 ft 331 kts 254°
2026-05-05 01:10 39.46573 -105.93402 40504 ft 334 kts 254°
2026-05-05 01:10 39.45779 -105.96239 40742 ft 335 kts 254°
2026-05-05 01:11 39.44982 -105.99092 40863 ft 338 kts 254°
2026-05-05 01:11 39.44190 -106.01924 41023 ft 340 kts 253°
2026-05-05 01:11 39.43379 -106.04815 41194 ft 343 kts 253°
2026-05-05 01:11 39.42563 -106.07722 41358 ft 345 kts 253°
2026-05-05 01:12 39.41741 -106.10646 41484 ft 346 kts 253°
2026-05-05 01:12 39.40921 -106.13563 41666 ft 346 kts 253°
2026-05-05 01:12 39.40095 -106.16503 41777 ft 349 kts 253°
2026-05-05 01:12 39.39261 -106.19456 41950 ft 350 kts 253°
2026-05-05 01:13 39.38422 -106.22423 42085 ft 352 kts 253°
2026-05-05 01:13 39.37581 -106.25402 42192 ft 353 kts 254°
2026-05-05 01:13 39.36735 -106.28396 42495 ft 355 kts 254°
2026-05-05 01:13 39.35884 -106.31399 42662 ft 356 kts 253°
2026-05-05 01:14 39.34183 -106.37394 42821 ft 360 kts 253°
2026-05-05 01:14 39.32448 -106.43495 42998 ft 363 kts 253°
2026-05-05 01:15 39.30690 -106.49662 43037 ft 370 kts 253°
2026-05-05 01:15 39.28891 -106.55963 43020 ft 377 kts 253°
2026-05-05 01:16 39.27049 -106.62379 42923 ft 383 kts 253°
2026-05-05 01:16 39.25176 -106.68784 42972 ft 380 kts 251°
2026-05-05 01:17 39.22674 -106.74755 42980 ft 383 kts 242°
2026-05-05 01:17 39.19494 -106.80342 42991 ft 388 kts 240°
2026-05-05 01:18 39.16272 -106.85950 42945 ft 388 kts 239°
2026-05-05 01:18 39.13055 -106.91491 42877 ft 385 kts 239°
2026-05-05 01:19 39.09850 -106.97051 42930 ft 389 kts 239°
2026-05-05 01:19 39.06580 -107.02653 42918 ft 393 kts 239°
2026-05-05 01:20 39.03304 -107.08306 42906 ft 395 kts 239°
2026-05-05 01:20 39.00034 -107.13905 42893 ft 391 kts 239°
2026-05-05 01:21 38.96796 -107.19456 42876 ft 386 kts 239°
2026-05-05 01:21 38.93573 -107.24971 42892 ft 385 kts 239°
2026-05-05 01:22 38.90333 -107.30508 42882 ft 389 kts 239°
2026-05-05 01:22 38.87061 -107.36087 42853 ft 393 kts 239°
2026-05-05 01:23 38.83776 -107.41664 42859 ft 389 kts 239°
2026-05-05 01:23 38.80535 -107.47178 42822 ft 384 kts 239°
2026-05-05 01:24 38.77317 -107.52644 42818 ft 387 kts 239°
2026-05-05 01:24 38.74048 -107.58162 42815 ft 388 kts 239°
2026-05-05 01:25 38.70802 -107.63659 42790 ft 386 kts 239°
2026-05-05 01:25 38.67562 -107.69122 42792 ft 384 kts 239°
2026-05-05 01:26 38.64331 -107.74568 42759 ft 384 kts 239°
2026-05-05 01:26 38.61097 -107.80003 42767 ft 384 kts 239°
2026-05-05 01:27 38.59484 -107.82717 42918 ft 383 kts 239°
2026-05-05 01:27 38.57885 -107.85397 42925 ft 383 kts 238°
2026-05-05 01:27 38.54659 -107.90801 42923 ft 382 kts 238°
2026-05-05 01:28 38.51435 -107.96199 42920 ft 381 kts 238°
2026-05-05 01:28 38.48215 -108.01576 42915 ft 381 kts 238°
2026-05-05 01:29 38.44995 -108.06949 42895 ft 381 kts 238°
2026-05-05 01:29 38.41790 -108.12281 42862 ft 381 kts 238°
2026-05-05 01:30 38.38567 -108.17643 42838 ft 381 kts 238°
2026-05-05 01:30 38.35335 -108.23000 42799 ft 379 kts 238°
2026-05-05 01:31 38.32163 -108.28256 42790 ft 370 kts 238°
2026-05-05 01:31 38.29036 -108.33433 42795 ft 369 kts 238°
2026-05-05 01:32 38.25906 -108.38603 42800 ft 372 kts 238°
2026-05-05 01:32 38.22729 -108.43842 42789 ft 375 kts 238°
2026-05-05 01:33 38.19522 -108.49120 42792 ft 378 kts 238°
2026-05-05 01:33 38.16311 -108.54394 42799 ft 375 kts 238°
2026-05-05 01:34 38.13144 -108.59593 42780 ft 373 kts 238°
2026-05-05 01:34 38.09976 -108.64784 42784 ft 371 kts 238°
2026-05-05 01:35 38.06806 -108.69969 42786 ft 372 kts 238°
2026-05-05 01:35 38.03628 -108.75159 42790 ft 372 kts 238°
2026-05-05 01:36 38.00451 -108.80342 42788 ft 372 kts 237°
2026-05-05 01:36 37.97266 -108.85523 42779 ft 372 kts 237°
2026-05-05 01:37 37.94107 -108.90658 42775 ft 371 kts 237°
2026-05-05 01:37 37.90926 -108.95822 42791 ft 371 kts 237°
2026-05-05 01:38 37.87750 -109.00966 42790 ft 371 kts 237°
2026-05-05 01:38 37.84573 -109.06106 42788 ft 370 kts 237°
2026-05-05 01:39 37.81395 -109.11239 42786 ft 369 kts 237°
2026-05-05 01:39 37.78240 -109.16329 42798 ft 370 kts 237°
2026-05-05 01:40 37.75046 -109.21471 42806 ft 373 kts 237°
2026-05-05 01:40 37.71836 -109.26631 42855 ft 374 kts 236°
2026-05-05 01:41 37.68605 -109.31791 42878 ft 374 kts 237°
2026-05-05 01:41 37.65421 -109.36937 42904 ft 373 kts 236°
2026-05-05 01:42 37.62197 -109.42071 42918 ft 372 kts 237°
2026-05-05 01:42 37.59019 -109.47161 42920 ft 370 kts 236°
2026-05-05 01:43 37.55826 -109.52249 42918 ft 369 kts 236°
2026-05-05 01:43 37.52639 -109.57327 42922 ft 369 kts 236°
2026-05-05 01:44 37.49449 -109.62401 42893 ft 371 kts 236°
2026-05-05 01:44 37.46234 -109.67506 42862 ft 373 kts 236°
2026-05-05 01:45 37.43001 -109.72632 42749 ft 374 kts 236°
2026-05-05 01:45 37.39770 -109.77743 42752 ft 372 kts 236°
2026-05-05 01:46 37.36578 -109.82791 42751 ft 370 kts 235°
2026-05-05 01:46 37.33374 -109.87847 42741 ft 368 kts 235°
2026-05-05 01:47 37.30184 -109.92873 42751 ft 367 kts 235°
2026-05-05 01:47 37.26981 -109.97917 42747 ft 371 kts 235°
2026-05-05 01:48 37.23756 -110.02980 42744 ft 374 kts 235°
2026-05-05 01:48 37.20516 -110.08061 42740 ft 371 kts 235°
2026-05-05 01:49 37.17297 -110.13104 42742 ft 369 kts 235°
2026-05-05 01:49 37.14086 -110.18124 42733 ft 368 kts 234°
2026-05-05 01:50 37.10878 -110.23133 42734 ft 369 kts 235°
2026-05-05 01:50 37.07640 -110.28183 42739 ft 374 kts 235°
2026-05-05 01:51 37.04388 -110.33244 42745 ft 376 kts 235°
2026-05-05 01:51 37.01121 -110.38323 42740 ft 373 kts 235°
2026-05-05 01:52 36.97873 -110.43361 42749 ft 371 kts 235°
2026-05-05 01:52 36.94647 -110.48365 42746 ft 370 kts 235°
2026-05-05 01:53 36.91387 -110.53411 42757 ft 375 kts 234°
2026-05-05 01:53 36.88092 -110.58494 42761 ft 381 kts 234°
2026-05-05 01:54 36.84766 -110.63633 42761 ft 378 kts 234°
2026-05-05 01:54 36.81477 -110.68694 42748 ft 374 kts 234°
2026-05-05 01:55 36.78755 -110.72882 42760 ft 373 kts 234°
2026-05-05 01:55 36.74940 -110.78742 42760 ft 375 kts 234°
2026-05-05 01:56 36.71640 -110.83803 42767 ft 376 kts 234°
2026-05-05 01:56 36.68892 -110.88012 42768 ft 377 kts 234°
2026-05-05 01:57 36.65583 -110.93069 42758 ft 375 kts 234°
2026-05-05 01:57 36.62280 -110.98110 42756 ft 375 kts 234°
2026-05-05 01:58 36.58977 -111.03151 42759 ft 375 kts 234°
2026-05-05 01:58 36.55670 -111.08183 42758 ft 375 kts 234°
2026-05-05 01:59 36.52364 -111.13208 42774 ft 376 kts 234°
2026-05-05 01:59 36.49072 -111.18205 42794 ft 376 kts 233°
2026-05-05 02:00 36.45747 -111.23244 42793 ft 377 kts 233°
2026-05-05 02:00 36.42414 -111.28288 42804 ft 378 kts 233°
2026-05-05 02:01 36.39070 -111.33341 42799 ft 379 kts 233°
2026-05-05 02:01 36.35717 -111.38399 42799 ft 380 kts 233°
2026-05-05 02:02 36.32354 -111.43465 42798 ft 380 kts 233°
2026-05-05 02:02 36.29005 -111.48502 42801 ft 381 kts 233°
2026-05-05 02:03 36.25633 -111.53566 42803 ft 380 kts 233°
2026-05-05 02:03 36.22272 -111.58607 42805 ft 378 kts 233°
2026-05-05 02:04 36.18925 -111.63619 42807 ft 376 kts 233°
2026-05-05 02:04 36.15597 -111.68595 42809 ft 374 kts 233°
2026-05-05 02:05 36.12297 -111.73527 42806 ft 375 kts 233°
2026-05-05 02:05 36.08982 -111.78552 42835 ft 378 kts 236°